Home > Weather > Sarajevo > Past weeks

Flag for Bosnia-Herzegovina Weather for the Past 2 Weeks in Sarajevo, Bosnia-Herzegovina

Now
52 °F

Partly sunny.


Feels Like: 50 °F
Forecast: 44 / 55 °F
Wind: 6 mph from West

Location: Sarajevo / Butmir

Current Time: May 4, 2016 at 6:01:06 PM

Latest Report: May 4, 2016 at 5:00 PM


Visibility: N/A

Pressure: 29.98 "Hg (28.14 "Hg at 526m altitude)

Humidity: 82%

Dew Point: 46 °F

Location of SarajevoLocation

Historic Weather in Sarajevo — Graph

°F

Sarajevo Temperature Yesterday

Maximum temperature yesterday: 50 °F (at 12:00 AM)
Minimum temperature yesterday: 46 °F (at 8:00 PM)
Average temperature yesterday: 48 °F

High & Low Weather Summary for the Past Weeks

 TemperatureHumidityPressure
High72 °F (Apr 22, 2:00 PM)100% (Apr 24, 5:00 AM)30.42 "Hg (Apr 24, 5:00 AM)
Low30 °F (Apr 21, 6:00 AM)15% (Apr 22, 3:30 PM)29.53 "Hg (Apr 24, 11:30 AM)
Average49 °F77%29.94 "Hg
* Reported Apr 19 4:00 PM — May 4 4:30 PM, Sarajevo, Weather by CustomWeather, © 2016

Note: Actual official high and low records may vary slightly from our data, if they occured in-between our weather recording intervals... More about our weather records

Advertising

Sarajevo Weather History for the Previous 24 Hours

Scroll right to see more
 ConditionsComfort  
Time TempWeatherWind HumidityBarometerVisibility
4:30 PM
Wed, May 4
50 °FLight rain. Broken clouds.6 mph82%29.98 "HgN/A
4:00 PM50 °FBroken clouds.6 mph82%29.98 "HgN/A
3:30 PM50 °FBroken clouds.7 mph82%30.01 "HgN/A
3:00 PM50 °FBroken clouds.5 mph82%30.01 "HgN/A
2:30 PM50 °FLight rain. Broken clouds.5 mph82%30.01 "HgN/A
1:00 PM50 °FLight rain. Broken clouds.3 mph88%29.98 "HgN/A
12:30 PM50 °FLight rain. Broken clouds.6 mph82%29.98 "HgN/A
12:00 PM50 °FLight rain. Broken clouds.7 mph76%29.98 "HgN/A
11:30 AM52 °FBroken clouds.5 mph77%29.95 "HgN/A
11:00 AM52 °FBroken clouds.6 mph72%29.95 "HgN/A
10:00 AM50 °FLight rain. Partly sunny.6 mph88%29.92 "Hg5 mi
9:30 AM52 °FPartly sunny.5 mph88%29.92 "HgN/A
9:00 AM50 °FPartly sunny.6 mph94%29.92 "HgN/A
8:30 AM50 °FPartly sunny.5 mph94%29.92 "Hg5 mi
8:00 AM48 °FLight rain. Partly sunny.5 mph100%29.89 "Hg4 mi
7:00 AM48 °FLight rain. Partly sunny.5 mph100%29.86 "Hg4 mi
6:30 AM48 °FLight rain. Passing clouds.3 mph94%29.86 "Hg4 mi
6:00 AM48 °FLight rain. Overcast.2 mph100%29.86 "Hg4 mi
5:30 AM48 °FOvercast.2 mph94%29.86 "Hg5 mi
5:00 AM48 °FLight rain. Passing clouds.2 mph100%29.86 "HgN/A
4:00 AM46 °FPassing clouds.1 mph100%29.86 "HgN/A
3:00 AM48 °FCool.3 mph94%29.86 "HgN/A
2:00 AM46 °FFog.1 mph100%29.86 "Hg3 mi
1:00 AM46 °FFog.1 mph100%29.89 "Hg3 mi
12:00 AM46 °FPartly cloudy.1 mph100%29.89 "Hg4 mi
11:00 PM
Tue, May 3
46 °FRain. Fog.1 mph100%29.89 "Hg2 mi
10:30 PM46 °FLight rain. Passing clouds.1 mph100%29.89 "Hg4 mi
10:00 PM46 °FLight rain. Fog.No wind100%29.89 "Hg3 mi
9:30 PM46 °FLight rain. Fog.No wind100%29.89 "Hg3 mi
9:00 PM46 °FLight rain. Fog.1 mph100%29.89 "Hg3 mi
8:30 PM46 °FLight rain. Broken clouds.No wind100%29.89 "Hg4 mi
8:00 PM46 °FRain. Fog.2 mph100%29.86 "Hg3 mi
7:30 PM48 °FRain. Partly sunny.No wind94%29.86 "Hg4 mi
7:00 PM48 °FLight rain. Partly sunny.No wind94%29.86 "Hg5 mi
6:30 PM48 °FDrizzle. Partly sunny.1 mph94%29.86 "Hg5 mi
6:00 PM48 °FLight rain. Partly sunny.1 mph94%29.86 "Hg5 mi
Weather by CustomWeather, © 2016

See weather overviewHow to use our weather pages